Precipitable_Water
0.44 0.40 0.66 0.87 1.25 1.25 1.50 1.40 1.41 1.44 1.45 1.39 1.39 1.39 1.33 1.25 1.21 1.19 1.13 1.06 1.04 1.01
0.52 0.43 0.53 0.76 1.21 1.28 1.52 1.43 1.40 1.42 1.40 1.41 1.36 1.38 1.33 1.23 1.19 1.16 1.12 1.07 1.06 1.03
0.54 0.48 0.53 0.82 1.15 1.26 1.33 1.47 1.41 1.36 1.38 1.34 1.36 1.36 1.28 1.23 1.21 1.15 1.12 1.10 1.07 1.04
0.53 0.50 0.54 0.75 1.11 1.25 1.26 1.46 1.43 1.36 1.35 1.30 1.30 1.35 1.24 1.21 1.18 1.14 1.10 1.09 1.04 0.99
0.55 0.52 0.53 0.76 1.10 1.22 1.34 1.43 1.38 1.40 1.34 1.26 1.28 1.31 1.24 1.18 1.16 1.11 1.07 1.06 1.02 0.95
0.53 0.55 0.64 0.88 1.14 1.22 1.37 1.34 1.39 1.36 1.31 1.25 1.26 1.29 1.25 1.21 1.17 1.14 1.11 1.06 0.98 0.95
0.57 0.62 0.77 1.04 1.23 1.27 1.45 1.37 1.40 1.33 1.32 1.26 1.26 1.28 1.27 1.24 1.22 1.17 1.13 1.09 1.02 0.99
0.76 0.88 0.97 1.02 1.22 1.43 1.37 1.34 1.35 1.34 1.30 1.30 1.26 1.29 1.29 1.26 1.24 1.18 1.13 1.10 1.07 1.04
0.96 1.05 1.07 1.19 1.34 1.37 1.38 1.40 1.37 1.32 1.28 1.27 1.25 1.30 1.34 1.29 1.25 1.19 1.12 1.08 1.08 1.07
0.96 1.06 1.12 1.36 1.36 1.32 1.29 1.29 1.31 1.32 1.29 1.24 1.24 1.29 1.34 1.30 1.27 1.18 1.15 1.11 1.08 1.07
1.03 1.05 1.20 1.26 1.31 1.33 1.35 1.31 1.30 1.34 1.30 1.25 1.25 1.29 1.33 1.33 1.28 1.19 1.16 1.13 1.12 1.08
1.10 1.17 1.24 1.27 1.29 1.32 1.30 1.30 1.34 1.34 1.29 1.24 1.26 1.31 1.32 1.33 1.31 1.20 1.15 1.16 1.13 1.12
1.06 1.20 1.24 1.23 1.26 1.30 1.32 1.33 1.39 1.35 1.33 1.31 1.29 1.32 1.30 1.31 1.29 1.19 1.14 1.14 1.13 1.15
1.05 1.11 1.18 1.27 1.28 1.25 1.26 1.28 1.27 1.31 1.35 1.33 1.34 1.31 1.30 1.30 1.26 1.21 1.13 1.08 1.09 1.17
Wind_Speed
72 75 80 83 65 60 65 67 65 61 56 54 51 48 46 43 40 39 37 35 34 33
73 73 79 81 68 64 64 68 65 60 57 54 51 49 47 44 42 40 38 36 35 33
72 73 79 80 74 58 49 67 64 61 58 55 52 49 48 45 42 40 38 36 35 34
67 71 77 81 74 61 54 67 64 62 58 55 53 50 48 45 42 40 38 37 36 34
62 67 74 80 80 55 50 65 62 59 57 55 53 51 48 45 43 41 39 37 35 34
60 66 71 76 70 64 57 64 60 59 57 55 53 50 48 46 43 41 40 37 36 35
58 62 66 68 60 60 63 63 59 58 56 54 52 50 48 46 43 42 40 38 37 36
52 56 55 63 53 57 61 61 57 57 54 53 51 49 48 46 44 42 40 38 37 36
50 49 48 48 57 58 59 58 57 57 53 53 50 49 49 46 44 42 40 39 38 37
50 42 39 45 51 58 58 55 54 54 52 51 48 48 48 47 44 42 41 39 38 37
44 40 37 48 53 54 54 55 53 52 51 49 47 48 47 46 44 42 41 40 39 38
33 41 45 47 51 50 51 51 50 51 48 47 47 47 46 46 44 43 42 41 39 38
23 36 43 44 52 49 48 46 48 49 48 47 46 46 46 45 44 43 42 40 40 39
14 24 34 43 47 47 48 46 48 50 47 47 47 45 45 45 44 43 42 41 40 39
Wind_Direction
223 220 218 217 223 221 212 214 213 214 215 218 217 218 219 222 224 226 228 230 234 237
221 219 215 214 218 219 216 210 210 213 213 214 216 218 219 221 224 226 228 231 234 237
218 217 213 213 214 213 209 209 210 209 211 214 215 216 218 221 223 225 228 231 233 236
216 215 213 213 212 216 216 207 208 208 211 213 213 216 217 220 222 224 227 230 232 235
213 213 211 209 209 214 221 205 206 210 211 213 214 215 216 219 221 224 226 229 231 232
211 208 205 203 211 218 217 205 206 208 211 211 211 214 216 219 221 223 226 228 229 231
204 202 200 201 209 216 204 201 204 207 209 210 212 214 216 218 220 223 225 227 229 231
193 194 200 205 219 202 200 202 206 207 208 209 211 213 215 217 220 222 225 227 230 232
190 193 199 219 206 201 200 203 204 205 207 208 211 214 215 217 219 223 226 228 231 233
190 194 211 203 201 196 199 199 202 204 207 208 213 214 214 217 220 224 227 229 231 234
204 214 218 202 196 198 201 204 204 206 206 210 214 213 215 217 221 225 227 230 233 236
218 210 202 198 201 203 200 203 205 206 208 211 214 215 216 218 221 225 228 231 234 237
218 208 203 202 205 206 204 207 209 207 211 214 215 216 217 220 223 226 229 232 235 237
183 195 206 209 206 207 211 213 216 210 212 216 217 217 219 221 225 228 230 234 236 239